Year,Month,Day,Hour,Minute,Value (Times are PST for temperature in C)
2016,02,21,00,00,7.10
2016,02,21,00,01,7.10
2016,02,21,00,02,7.00
2016,02,21,00,03,7.00
2016,02,21,00,04,7.00
2016,02,21,00,05,7.00
2016,02,21,00,06,7.00
2016,02,21,00,07,7.00
2016,02,21,00,08,7.00
2016,02,21,00,09,7.00
2016,02,21,00,10,7.00
2016,02,21,00,11,6.90
2016,02,21,00,12,6.90
2016,02,21,00,13,6.90
2016,02,21,00,14,6.90
2016,02,21,00,15,6.90
2016,02,21,00,16,6.90
2016,02,21,00,17,6.90
2016,02,21,00,18,6.90
2016,02,21,00,19,6.90
2016,02,21,00,20,6.80
2016,02,21,00,21,6.80
2016,02,21,00,22,6.80
2016,02,21,00,23,6.80
2016,02,21,00,24,6.80
2016,02,21,00,25,6.70
2016,02,21,00,27,6.70
2016,02,21,00,28,6.70
2016,02,21,00,29,6.60
2016,02,21,00,31,6.60
2016,02,21,00,32,6.60
2016,02,21,00,33,6.60
2016,02,21,00,34,6.60
2016,02,21,00,36,6.60
2016,02,21,00,37,6.60
2016,02,21,00,38,6.60
2016,02,21,00,39,6.60
2016,02,21,00,41,6.60
2016,02,21,00,42,6.60
2016,02,21,00,43,6.60
2016,02,21,00,44,6.40
2016,02,21,00,46,6.40
2016,02,21,00,47,6.40
2016,02,21,00,48,6.40
2016,02,21,00,49,6.40
2016,02,21,00,51,6.40
2016,02,21,00,52,6.40
2016,02,21,00,53,6.40
2016,02,21,00,54,6.40
2016,02,21,00,56,6.40
2016,02,21,00,57,6.40
2016,02,21,00,58,6.40
2016,02,21,00,59,6.60
2016,02,21,01,01,6.60
2016,02,21,01,02,6.60
2016,02,21,01,03,6.60
2016,02,21,01,04,6.70
2016,02,21,01,06,6.70
2016,02,21,01,07,6.70
2016,02,21,01,08,6.70
2016,02,21,01,09,6.80
2016,02,21,01,11,6.80
2016,02,21,01,12,6.80
2016,02,21,01,13,6.80
2016,02,21,01,14,6.80
2016,02,21,01,16,6.80
2016,02,21,01,17,6.80
2016,02,21,01,18,6.80
2016,02,21,01,19,6.80
2016,02,21,01,21,6.80
2016,02,21,01,22,6.70
2016,02,21,01,23,6.70
2016,02,21,01,24,6.70
2016,02,21,01,26,6.60
2016,02,21,01,27,6.60
2016,02,21,01,28,6.60
2016,02,21,01,29,6.60
2016,02,21,01,31,6.60
2016,02,21,01,32,6.60
2016,02,21,01,33,6.40
2016,02,21,01,34,6.40
2016,02,21,01,36,6.40
2016,02,21,01,37,6.40
2016,02,21,01,38,6.40
2016,02,21,01,39,6.40
2016,02,21,01,41,6.40
2016,02,21,01,42,6.40
2016,02,21,01,43,6.40
2016,02,21,01,44,6.40
2016,02,21,01,45,6.40
2016,02,21,01,46,6.30
2016,02,21,01,47,6.30
2016,02,21,01,48,6.20
2016,02,21,01,49,6.20
2016,02,21,01,50,6.20
2016,02,21,01,51,6.20
2016,02,21,01,52,6.10
2016,02,21,01,53,6.10
2016,02,21,01,54,6.10
2016,02,21,01,55,6.00
2016,02,21,01,56,6.00
2016,02,21,01,57,6.00
2016,02,21,01,58,6.00
2016,02,21,01,59,5.90
2016,02,21,02,00,5.90
2016,02,21,02,01,5.90
2016,02,21,02,02,5.90
2016,02,21,02,03,5.80
2016,02,21,02,04,5.80
2016,02,21,02,05,5.80
2016,02,21,02,06,5.80
2016,02,21,02,07,5.80
2016,02,21,02,08,5.80
2016,02,21,02,09,5.70
2016,02,21,02,10,5.70
2016,02,21,02,11,5.70
2016,02,21,02,12,5.70
2016,02,21,02,13,5.70
2016,02,21,02,14,5.70
2016,02,21,02,15,5.70
2016,02,21,02,16,5.70
2016,02,21,02,17,5.70
2016,02,21,02,18,5.70
2016,02,21,02,19,5.70
2016,02,21,02,20,5.70
2016,02,21,02,21,5.70
2016,02,21,02,22,5.70
2016,02,21,02,23,5.70
2016,02,21,02,24,5.70
2016,02,21,02,25,5.70
2016,02,21,02,26,5.70
2016,02,21,02,27,5.70
2016,02,21,02,28,5.80
2016,02,21,02,29,5.80
2016,02,21,02,30,5.80
2016,02,21,02,31,5.80
2016,02,21,02,32,5.80
2016,02,21,02,33,5.90
2016,02,21,02,34,5.90
2016,02,21,02,35,5.90
2016,02,21,02,36,5.90
2016,02,21,02,37,5.90
2016,02,21,02,38,6.00
2016,02,21,02,39,6.00
2016,02,21,02,40,6.00
2016,02,21,02,41,6.00
2016,02,21,02,42,6.00
2016,02,21,02,43,6.00
2016,02,21,02,44,6.00
2016,02,21,02,45,6.10
2016,02,21,02,46,6.10
2016,02,21,02,47,6.10
2016,02,21,02,48,6.10
2016,02,21,02,49,6.10
2016,02,21,02,50,6.10
2016,02,21,02,51,6.10
2016,02,21,02,52,6.10
2016,02,21,02,53,6.00
2016,02,21,02,54,6.00
2016,02,21,02,55,6.00
2016,02,21,02,56,6.00
2016,02,21,02,57,6.00
2016,02,21,02,58,6.00
2016,02,21,02,59,6.00
2016,02,21,03,00,5.90
2016,02,21,03,01,5.90
2016,02,21,03,02,5.90
2016,02,21,03,03,5.90
2016,02,21,03,04,5.90
2016,02,21,03,05,5.90
2016,02,21,03,06,5.90
2016,02,21,03,07,5.90
2016,02,21,03,08,5.80
2016,02,21,03,09,5.80
2016,02,21,03,10,5.80
2016,02,21,03,11,5.80
2016,02,21,03,12,5.80
2016,02,21,03,13,5.80
2016,02,21,03,14,5.80
2016,02,21,03,16,5.80
2016,02,21,03,17,5.80
2016,02,21,03,18,5.80
2016,02,21,03,19,5.80
2016,02,21,03,21,5.80
2016,02,21,03,22,5.70
2016,02,21,03,23,5.70
2016,02,21,03,24,5.70
2016,02,21,03,26,5.70
2016,02,21,03,27,5.70
2016,02,21,03,28,5.70
2016,02,21,03,29,5.70
2016,02,21,03,31,5.70
2016,02,21,03,32,5.70
2016,02,21,03,33,5.70
2016,02,21,03,34,5.70
2016,02,21,03,36,5.70
2016,02,21,03,37,5.70
2016,02,21,03,38,5.70
2016,02,21,03,39,5.70
2016,02,21,03,41,5.80
2016,02,21,03,42,5.80
2016,02,21,03,43,5.80
2016,02,21,03,44,5.80
2016,02,21,03,46,5.80
2016,02,21,03,47,5.80
2016,02,21,03,48,5.90
2016,02,21,03,49,5.90
2016,02,21,03,51,5.90
2016,02,21,03,52,5.90
2016,02,21,03,53,5.90
2016,02,21,03,54,5.90
2016,02,21,03,56,5.90
2016,02,21,03,57,5.90
2016,02,21,03,58,5.90
2016,02,21,03,59,5.80
2016,02,21,04,01,5.80
2016,02,21,04,02,5.80
2016,02,21,04,03,5.80
2016,02,21,04,04,5.80
2016,02,21,04,06,5.70
2016,02,21,04,07,5.70
2016,02,21,04,08,5.70
2016,02,21,04,09,5.70
2016,02,21,04,10,5.70
2016,02,21,04,11,5.70
2016,02,21,04,12,5.70
2016,02,21,04,13,5.70
2016,02,21,04,14,5.70
2016,02,21,04,15,5.70
2016,02,21,04,16,5.70
2016,02,21,04,17,5.70
2016,02,21,04,18,5.70
2016,02,21,04,19,5.70
2016,02,21,04,20,5.70
2016,02,21,04,21,5.70
2016,02,21,04,22,5.70
2016,02,21,04,23,5.70
2016,02,21,04,24,5.70
2016,02,21,04,25,5.70
2016,02,21,04,26,5.70
2016,02,21,04,27,5.70
2016,02,21,04,28,5.70
2016,02,21,04,29,5.70
2016,02,21,04,30,5.70
2016,02,21,04,31,5.70
2016,02,21,04,32,5.70
2016,02,21,04,33,5.70
2016,02,21,04,34,5.70
2016,02,21,04,35,5.70
2016,02,21,04,36,5.70
2016,02,21,04,37,5.70
2016,02,21,04,38,5.70
2016,02,21,04,39,5.70
2016,02,21,04,40,5.70
2016,02,21,04,41,5.70
2016,02,21,04,42,5.70
2016,02,21,04,43,5.70
2016,02,21,04,44,5.70
2016,02,21,04,45,5.70
2016,02,21,04,46,5.70
2016,02,21,04,47,5.60
2016,02,21,04,48,5.60
2016,02,21,04,49,5.60
2016,02,21,04,50,5.60
2016,02,21,04,51,5.60
2016,02,21,04,52,5.60
2016,02,21,04,53,5.70
2016,02,21,04,54,5.70
2016,02,21,04,55,5.70
2016,02,21,04,56,5.70
2016,02,21,04,57,5.70
2016,02,21,04,58,5.70
2016,02,21,04,59,5.70
2016,02,21,05,00,5.70
2016,02,21,05,01,5.70
2016,02,21,05,02,5.70
2016,02,21,05,03,5.70
2016,02,21,05,04,5.70
2016,02,21,05,05,5.70
2016,02,21,05,06,5.70
2016,02,21,05,07,5.70
2016,02,21,05,08,5.70
2016,02,21,05,09,5.70
2016,02,21,05,10,5.80
2016,02,21,05,11,5.80
2016,02,21,05,12,5.90
2016,02,21,05,13,5.90
2016,02,21,05,14,5.90
2016,02,21,05,15,5.90
2016,02,21,05,16,5.90
2016,02,21,05,17,5.90
2016,02,21,05,18,5.90
2016,02,21,05,19,5.90
2016,02,21,05,20,5.90
2016,02,21,05,21,5.90
2016,02,21,05,22,5.90
2016,02,21,05,23,5.90
2016,02,21,05,24,5.90
2016,02,21,05,25,5.90
2016,02,21,05,26,5.90
2016,02,21,05,27,5.90
2016,02,21,05,29,5.90
2016,02,21,05,31,5.90
2016,02,21,05,32,5.90
2016,02,21,05,33,5.90
2016,02,21,05,34,5.90
2016,02,21,05,36,5.90
2016,02,21,05,37,5.90
2016,02,21,05,38,5.90
2016,02,21,05,39,5.90
2016,02,21,05,41,5.90
2016,02,21,05,42,5.90
2016,02,21,05,43,5.90
2016,02,21,05,44,5.90
2016,02,21,05,46,5.90
2016,02,21,05,47,5.90
2016,02,21,05,48,5.90
2016,02,21,05,49,6.00
2016,02,21,05,51,6.00
2016,02,21,05,52,6.00
2016,02,21,05,53,6.00
2016,02,21,05,54,6.00
2016,02,21,05,56,6.00
2016,02,21,05,57,6.00
2016,02,21,05,58,6.00
2016,02,21,05,59,6.00
2016,02,21,06,01,6.00
2016,02,21,06,02,6.00
2016,02,21,06,03,6.00
2016,02,21,06,04,6.00
2016,02,21,06,06,5.90
2016,02,21,06,07,5.90
2016,02,21,06,08,5.90
2016,02,21,06,09,5.90
2016,02,21,06,11,6.00
2016,02,21,06,12,6.00
2016,02,21,06,13,6.00
2016,02,21,06,14,6.00
2016,02,21,06,16,6.00
2016,02,21,06,17,6.00
2016,02,21,06,18,6.00
2016,02,21,06,19,6.00
2016,02,21,06,21,6.00
2016,02,21,06,22,6.00
2016,02,21,06,23,6.00
2016,02,21,06,24,6.00
2016,02,21,06,26,6.00
2016,02,21,06,27,6.00
2016,02,21,06,28,6.00
2016,02,21,06,29,6.00
2016,02,21,06,31,6.10
2016,02,21,06,32,6.10
2016,02,21,06,33,6.10
2016,02,21,06,34,6.20
2016,02,21,06,36,6.20
2016,02,21,06,37,6.20
2016,02,21,06,38,6.20
2016,02,21,06,39,6.20
2016,02,21,06,40,6.20
2016,02,21,06,41,6.20
2016,02,21,06,42,6.20
2016,02,21,06,43,6.20
2016,02,21,06,44,6.20
2016,02,21,06,45,6.20
2016,02,21,06,46,6.20
2016,02,21,06,47,6.20
2016,02,21,06,48,6.20
2016,02,21,06,49,6.20
2016,02,21,06,50,6.20
2016,02,21,06,51,6.30
2016,02,21,06,52,6.30
2016,02,21,06,53,6.30
2016,02,21,06,54,6.30
2016,02,21,06,55,6.30
2016,02,21,06,56,6.30
2016,02,21,06,57,6.30
2016,02,21,06,58,6.30
2016,02,21,06,59,6.30
2016,02,21,07,00,6.30
2016,02,21,07,01,6.30
2016,02,21,07,02,6.30
2016,02,21,07,03,6.30
2016,02,21,07,04,6.30
2016,02,21,07,05,6.30
2016,02,21,07,06,6.30
2016,02,21,07,07,6.30
2016,02,21,07,08,6.30
2016,02,21,07,09,6.20
2016,02,21,07,10,6.20
2016,02,21,07,11,6.20
2016,02,21,07,12,6.20
2016,02,21,07,13,6.30
2016,02,21,07,14,6.30
2016,02,21,07,15,6.30
2016,02,21,07,16,6.30
2016,02,21,07,17,6.30
2016,02,21,07,18,6.30
2016,02,21,07,19,6.30
2016,02,21,07,20,6.30
2016,02,21,07,21,6.30
2016,02,21,07,22,6.30
2016,02,21,07,23,6.30
2016,02,21,07,24,6.30
2016,02,21,07,25,6.30
2016,02,21,07,26,6.40
2016,02,21,07,27,6.40
2016,02,21,07,28,6.40
2016,02,21,07,29,6.40
2016,02,21,07,30,6.40
2016,02,21,07,31,6.40
2016,02,21,07,32,6.40
2016,02,21,07,33,6.40
2016,02,21,07,34,6.60
2016,02,21,07,35,6.60
2016,02,21,07,36,6.60
2016,02,21,07,37,6.60
2016,02,21,07,38,6.60
2016,02,21,07,39,6.60
2016,02,21,07,40,6.60
2016,02,21,07,41,6.60
2016,02,21,07,42,6.60
2016,02,21,07,43,6.60
2016,02,21,07,44,6.60
2016,02,21,07,45,6.60
2016,02,21,07,46,6.60
2016,02,21,07,47,6.60
2016,02,21,07,48,6.60
2016,02,21,07,49,6.60
2016,02,21,07,50,6.60
2016,02,21,07,51,6.60
2016,02,21,07,53,6.60
2016,02,21,07,54,6.60
2016,02,21,07,56,6.60
2016,02,21,07,57,6.60
2016,02,21,07,58,6.60
2016,02,21,07,59,6.60
2016,02,21,08,01,6.60
2016,02,21,08,02,6.60
2016,02,21,08,03,6.60
2016,02,21,08,04,6.60
2016,02,21,08,06,6.60
2016,02,21,08,07,6.60
2016,02,21,08,08,6.60
2016,02,21,08,09,6.60
2016,02,21,08,11,6.60
2016,02,21,08,12,6.60
2016,02,21,08,13,6.60
2016,02,21,08,14,6.60
2016,02,21,08,16,6.60
2016,02,21,08,17,6.60
2016,02,21,08,18,6.60
2016,02,21,08,19,6.60
2016,02,21,08,21,6.60
2016,02,21,08,22,6.60
2016,02,21,08,23,6.60
2016,02,21,08,24,6.60
2016,02,21,08,26,6.60
2016,02,21,08,27,6.60
2016,02,21,08,28,6.60
2016,02,21,08,29,6.60
2016,02,21,08,31,6.60
2016,02,21,08,32,6.60
2016,02,21,08,33,6.60
2016,02,21,08,34,6.60
2016,02,21,08,36,6.60
2016,02,21,08,37,6.60
2016,02,21,08,38,6.60
2016,02,21,08,39,6.60
2016,02,21,08,40,6.70
2016,02,21,08,41,6.70
2016,02,21,08,42,6.70
2016,02,21,08,43,6.70
2016,02,21,08,44,6.70
2016,02,21,08,45,6.70
2016,02,21,08,46,6.70
2016,02,21,08,47,6.70
2016,02,21,08,48,6.80
2016,02,21,08,49,6.80
2016,02,21,08,50,6.80
2016,02,21,08,51,6.80
2016,02,21,08,52,6.80
2016,02,21,08,53,6.80
2016,02,21,08,54,6.80
2016,02,21,08,55,6.80
2016,02,21,08,56,6.80
2016,02,21,08,57,6.80
2016,02,21,08,58,6.80
2016,02,21,08,59,6.80
2016,02,21,09,00,6.80
2016,02,21,09,01,6.80
2016,02,21,09,02,6.80
2016,02,21,09,03,6.90
2016,02,21,09,04,6.90
2016,02,21,09,05,6.90
2016,02,21,09,06,6.90
2016,02,21,09,07,6.90
2016,02,21,09,08,6.90
2016,02,21,09,09,7.00
2016,02,21,09,10,7.00
2016,02,21,09,11,7.00
2016,02,21,09,12,7.00
2016,02,21,09,13,7.00
2016,02,21,09,14,7.00
2016,02,21,09,15,7.00
2016,02,21,09,16,7.00
2016,02,21,09,17,7.00
2016,02,21,09,18,6.90
2016,02,21,09,19,6.90
2016,02,21,09,20,6.90
2016,02,21,09,21,6.90
2016,02,21,09,22,6.90
2016,02,21,09,23,6.90
2016,02,21,09,24,6.90
2016,02,21,09,25,6.90
2016,02,21,09,26,6.90
2016,02,21,09,27,6.90
2016,02,21,09,28,6.90
2016,02,21,09,29,6.90
2016,02,21,09,30,6.90
2016,02,21,09,31,6.90
2016,02,21,09,32,7.00
2016,02,21,09,33,7.00
2016,02,21,09,34,7.00
2016,02,21,09,35,7.00
2016,02,21,09,36,7.00
2016,02,21,09,37,7.10
2016,02,21,09,38,7.10
2016,02,21,09,39,7.10
2016,02,21,09,40,7.20
2016,02,21,09,41,7.20
2016,02,21,09,42,7.20
2016,02,21,09,43,7.20
2016,02,21,09,44,7.20
2016,02,21,09,45,7.20
2016,02,21,09,46,7.30
2016,02,21,09,47,7.30
2016,02,21,09,48,7.30
2016,02,21,09,49,7.30
2016,02,21,09,50,7.30
2016,02,21,09,51,7.30
2016,02,21,09,52,7.30
2016,02,21,09,53,7.30
2016,02,21,09,54,7.30
2016,02,21,09,55,7.30
2016,02,21,09,56,7.30
2016,02,21,09,57,7.30
2016,02,21,09,58,7.30
2016,02,21,09,59,7.30
2016,02,21,10,00,7.30
2016,02,21,10,01,7.30
2016,02,21,10,02,7.30
2016,02,21,10,03,7.30
2016,02,21,10,04,7.30
2016,02,21,10,05,7.30
2016,02,21,10,06,7.30
2016,02,21,10,07,7.40
2016,02,21,10,09,7.30
2016,02,21,10,11,7.30
2016,02,21,10,12,7.30
2016,02,21,10,13,7.30
2016,02,21,10,14,7.30
2016,02,21,10,16,7.40
2016,02,21,10,17,7.40
2016,02,21,10,18,7.40
2016,02,21,10,19,7.40
2016,02,21,10,21,7.40
2016,02,21,10,22,7.40
2016,02,21,10,23,7.40
2016,02,21,10,24,7.40
2016,02,21,10,26,7.40
2016,02,21,10,27,7.40
2016,02,21,10,28,7.50
2016,02,21,10,29,7.50
2016,02,21,10,31,7.50
2016,02,21,10,32,7.50
2016,02,21,10,33,7.50
2016,02,21,10,34,7.50
2016,02,21,10,36,7.50
2016,02,21,10,37,7.50
2016,02,21,10,38,7.50
2016,02,21,10,39,7.50
2016,02,21,10,41,7.50
2016,02,21,10,42,7.50
2016,02,21,10,43,7.50
2016,02,21,10,44,7.50
2016,02,21,10,46,7.50
2016,02,21,10,47,7.50
2016,02,21,10,48,7.50
2016,02,21,10,49,7.50
2016,02,21,10,51,7.50
2016,02,21,10,52,7.50
2016,02,21,10,53,7.50
2016,02,21,10,54,7.50
2016,02,21,10,56,7.60
2016,02,21,10,57,7.60
2016,02,21,10,58,7.60
2016,02,21,10,59,7.60
2016,02,21,11,01,7.60
2016,02,21,11,02,7.60
2016,02,21,11,03,7.60
2016,02,21,11,04,7.60
2016,02,21,11,06,7.60
2016,02,21,11,07,7.60
2016,02,21,11,08,7.60
2016,02,21,11,09,7.60
2016,02,21,11,11,7.60
2016,02,21,11,12,7.60
2016,02,21,11,13,7.60
2016,02,21,11,14,7.60
2016,02,21,11,15,7.70
2016,02,21,11,16,7.70
2016,02,21,11,17,7.70
2016,02,21,11,18,7.70
2016,02,21,11,19,7.70
2016,02,21,11,20,7.70
2016,02,21,11,21,7.70
2016,02,21,11,22,7.70
2016,02,21,11,23,7.80
2016,02,21,11,24,7.80
2016,02,21,11,25,7.80
2016,02,21,11,26,7.80
2016,02,21,11,27,7.80
2016,02,21,11,28,7.80
2016,02,21,11,29,7.80
2016,02,21,11,30,7.80
2016,02,21,11,31,7.80
2016,02,21,11,32,7.80
2016,02,21,11,33,7.80
2016,02,21,11,34,7.80
2016,02,21,11,35,7.80
2016,02,21,11,36,7.80
2016,02,21,11,37,7.90
2016,02,21,11,38,7.90
2016,02,21,11,39,7.90
2016,02,21,11,40,7.90
2016,02,21,11,41,8.00
2016,02,21,11,42,8.00
2016,02,21,11,43,8.00
2016,02,21,11,44,8.10
2016,02,21,11,45,8.10
2016,02,21,11,46,8.10
2016,02,21,11,47,8.10
2016,02,21,11,48,8.20
2016,02,21,11,49,8.20
2016,02,21,11,50,8.20
2016,02,21,11,51,8.20
2016,02,21,11,52,8.20
2016,02,21,11,53,8.20
2016,02,21,11,54,8.30
2016,02,21,11,55,8.30
2016,02,21,11,56,8.30
2016,02,21,11,57,8.30
2016,02,21,11,58,8.30
2016,02,21,11,59,8.30
2016,02,21,12,00,8.40
2016,02,21,12,01,8.40
2016,02,21,12,02,8.40
2016,02,21,12,03,8.40
2016,02,21,12,04,8.50
2016,02,21,12,05,8.50
2016,02,21,12,06,8.50
2016,02,21,12,07,8.60
2016,02,21,12,08,8.60
2016,02,21,12,09,8.60
2016,02,21,12,10,8.60
2016,02,21,12,11,8.70
2016,02,21,12,12,8.70
2016,02,21,12,13,8.70
2016,02,21,12,14,8.70
2016,02,21,12,15,8.70
2016,02,21,12,16,8.70
2016,02,21,12,17,8.70
2016,02,21,12,18,8.70
2016,02,21,12,19,8.80
2016,02,21,12,20,8.80
2016,02,21,12,21,8.80
2016,02,21,12,22,8.90
2016,02,21,12,23,8.90
2016,02,21,12,24,8.90
2016,02,21,12,25,9.00
2016,02,21,12,26,9.00
2016,02,21,12,27,9.00
2016,02,21,12,28,9.00
2016,02,21,12,29,9.00
2016,02,21,12,30,9.10
2016,02,21,12,31,9.10
2016,02,21,12,32,9.10
2016,02,21,12,33,9.10
2016,02,21,12,34,9.10
2016,02,21,12,35,9.10
2016,02,21,12,36,9.10
2016,02,21,12,37,9.10
2016,02,21,12,38,9.10
2016,02,21,12,39,9.10
2016,02,21,12,40,9.10
2016,02,21,12,41,9.10
2016,02,21,12,42,9.10
2016,02,21,12,43,9.10
2016,02,21,12,44,9.10
2016,02,21,12,45,9.10
2016,02,21,12,46,9.10
2016,02,21,12,47,9.10
2016,02,21,12,48,9.10
2016,02,21,12,49,9.10
2016,02,21,12,50,9.10
2016,02,21,12,51,9.10
2016,02,21,12,52,9.10
2016,02,21,12,54,9.20
2016,02,21,12,56,9.20
2016,02,21,12,57,9.20
2016,02,21,12,58,9.20
2016,02,21,12,59,9.20
2016,02,21,13,01,9.20
2016,02,21,13,02,9.10
2016,02,21,13,03,9.10
2016,02,21,13,04,9.10
2016,02,21,13,06,9.10
2016,02,21,13,07,9.10
2016,02,21,13,08,9.10
2016,02,21,13,09,9.10
2016,02,21,13,11,9.10
2016,02,21,13,12,9.10
2016,02,21,13,13,9.10
2016,02,21,13,14,9.10
2016,02,21,13,16,9.10
2016,02,21,13,17,9.10
2016,02,21,13,18,9.10
2016,02,21,13,19,9.10
2016,02,21,13,21,9.10
2016,02,21,13,22,9.00
2016,02,21,13,23,9.00
2016,02,21,13,24,8.90
2016,02,21,13,26,8.70
2016,02,21,13,27,8.70
2016,02,21,13,28,8.60
2016,02,21,13,29,8.60
2016,02,21,13,31,8.50
2016,02,21,13,32,8.40
2016,02,21,13,33,8.40
2016,02,21,13,34,8.30
2016,02,21,13,36,8.20
2016,02,21,13,37,8.20
2016,02,21,13,38,8.20
2016,02,21,13,39,8.20
2016,02,21,13,41,8.20
2016,02,21,13,42,8.10
2016,02,21,13,43,8.10
2016,02,21,13,44,8.00
2016,02,21,13,46,8.00
2016,02,21,13,47,8.00
2016,02,21,13,48,8.00
2016,02,21,13,49,8.00
2016,02,21,13,51,8.00
2016,02,21,13,52,7.90
2016,02,21,13,53,7.90
2016,02,21,13,54,7.90
2016,02,21,13,56,7.90
2016,02,21,13,57,7.90
2016,02,21,13,58,7.90
2016,02,21,13,59,7.90
2016,02,21,14,01,7.90
2016,02,21,14,02,7.90
2016,02,21,14,03,7.90
2016,02,21,14,04,7.90
2016,02,21,14,06,7.90
2016,02,21,14,07,7.90
2016,02,21,14,08,7.90
2016,02,21,14,09,7.90
2016,02,21,14,10,7.90
2016,02,21,14,11,7.90
2016,02,21,14,12,7.90
2016,02,21,14,13,8.00
2016,02,21,14,14,8.00
2016,02,21,14,15,8.00
2016,02,21,14,16,8.10
2016,02,21,14,17,8.10
2016,02,21,14,18,8.20
2016,02,21,14,19,8.20
2016,02,21,14,20,8.30
2016,02,21,14,21,8.30
2016,02,21,14,22,8.40
2016,02,21,14,23,8.40
2016,02,21,14,24,8.50
2016,02,21,14,25,8.50
2016,02,21,14,26,8.60
2016,02,21,14,27,8.60
2016,02,21,14,28,8.60
2016,02,21,14,29,8.70
2016,02,21,14,30,8.70
2016,02,21,14,31,8.80
2016,02,21,14,32,8.90
2016,02,21,14,33,9.00
2016,02,21,14,34,9.10
2016,02,21,14,35,9.10
2016,02,21,14,36,9.20
2016,02,21,14,37,9.20
2016,02,21,14,38,9.20
2016,02,21,14,39,9.20
2016,02,21,14,40,9.20
2016,02,21,14,41,9.20
2016,02,21,14,42,9.20
2016,02,21,14,43,9.20
2016,02,21,14,44,9.20
2016,02,21,14,45,9.10
2016,02,21,14,46,9.10
2016,02,21,14,47,9.00
2016,02,21,14,48,9.00
2016,02,21,14,49,9.10
2016,02,21,14,50,9.10
2016,02,21,14,51,9.20
2016,02,21,14,52,9.20
2016,02,21,14,53,9.20
2016,02,21,14,54,9.20
2016,02,21,14,55,9.30
2016,02,21,14,56,9.30
2016,02,21,14,57,9.30
2016,02,21,14,58,9.40
2016,02,21,14,59,9.40
2016,02,21,15,00,9.40
2016,02,21,15,01,9.40
2016,02,21,15,02,9.40
2016,02,21,15,03,9.40
2016,02,21,15,04,9.40
2016,02,21,15,05,9.50
2016,02,21,15,06,9.50
2016,02,21,15,07,9.60
2016,02,21,15,08,9.60
2016,02,21,15,09,9.60
2016,02,21,15,10,9.60
2016,02,21,15,11,9.60
2016,02,21,15,12,9.60
2016,02,21,15,13,9.60
2016,02,21,15,14,9.60
2016,02,21,15,15,9.60
2016,02,21,15,16,9.50
2016,02,21,15,17,9.50
2016,02,21,15,18,9.50
2016,02,21,15,19,9.50
2016,02,21,15,20,9.40
2016,02,21,15,21,9.40
2016,02,21,15,22,9.30
2016,02,21,15,23,9.30
2016,02,21,15,24,9.20
2016,02,21,15,25,9.20
2016,02,21,15,26,9.20
2016,02,21,15,27,9.20
2016,02,21,15,28,9.20
2016,02,21,15,29,9.20
2016,02,21,15,30,9.10
2016,02,21,15,31,9.10
2016,02,21,15,32,9.00
2016,02,21,15,33,9.10
2016,02,21,15,34,9.10
2016,02,21,15,35,9.10
2016,02,21,15,36,9.10
2016,02,21,15,37,9.20
2016,02,21,15,38,9.20
2016,02,21,15,39,9.20
2016,02,21,15,40,9.20
2016,02,21,15,41,9.20
2016,02,21,15,42,9.30
2016,02,21,15,43,9.30
2016,02,21,15,44,9.40
2016,02,21,15,46,9.40
2016,02,21,15,47,9.40
2016,02,21,15,48,9.40
2016,02,21,15,49,9.40
2016,02,21,15,51,9.40
2016,02,21,15,52,9.40
2016,02,21,15,53,9.40
2016,02,21,15,54,9.40
2016,02,21,15,56,9.40
2016,02,21,15,57,9.40
2016,02,21,15,58,9.40
2016,02,21,15,59,9.30
2016,02,21,16,01,9.30
2016,02,21,16,02,9.30
2016,02,21,16,03,9.30
2016,02,21,16,04,9.20
2016,02,21,16,06,9.20
2016,02,21,16,07,9.20
2016,02,21,16,08,9.20
2016,02,21,16,09,9.20
2016,02,21,16,11,9.20
2016,02,21,16,12,9.20
2016,02,21,16,13,9.20
2016,02,21,16,14,9.20
2016,02,21,16,16,9.20
2016,02,21,16,17,9.20
2016,02,21,16,18,9.10
2016,02,21,16,19,9.10
2016,02,21,16,21,9.10
2016,02,21,16,22,9.10
2016,02,21,16,23,9.10
2016,02,21,16,24,9.10
2016,02,21,16,26,9.10
2016,02,21,16,27,9.10
2016,02,21,16,28,9.10
2016,02,21,16,29,9.10
2016,02,21,16,31,9.10
2016,02,21,16,32,9.00
2016,02,21,16,33,9.00
2016,02,21,16,34,9.00
2016,02,21,16,36,8.90
2016,02,21,16,37,8.80
2016,02,21,16,38,8.80
2016,02,21,16,39,8.80
2016,02,21,16,41,8.70
2016,02,21,16,42,8.70
2016,02,21,16,43,8.70
2016,02,21,16,44,8.70
2016,02,21,16,46,8.60
2016,02,21,16,47,8.60
2016,02,21,16,48,8.60
2016,02,21,16,49,8.60
2016,02,21,16,51,8.50
2016,02,21,16,52,8.50
2016,02,21,16,53,8.40
2016,02,21,16,54,8.40
2016,02,21,16,55,8.40
2016,02,21,16,56,8.30
2016,02,21,16,57,8.30
2016,02,21,16,58,8.30
2016,02,21,16,59,8.30
2016,02,21,17,00,8.20
2016,02,21,17,01,8.20
2016,02,21,17,02,8.20
2016,02,21,17,03,8.20
2016,02,21,17,04,8.20
2016,02,21,17,05,8.20
2016,02,21,17,06,8.20
2016,02,21,17,07,8.20
2016,02,21,17,08,8.20
2016,02,21,17,09,8.20
2016,02,21,17,10,8.20
2016,02,21,17,11,8.20
2016,02,21,17,12,8.20
2016,02,21,17,13,8.20
2016,02,21,17,14,8.20
2016,02,21,17,15,8.20
2016,02,21,17,16,8.20
2016,02,21,17,17,8.20
2016,02,21,17,18,8.20
2016,02,21,17,19,8.20
2016,02,21,17,20,8.20
2016,02,21,17,21,8.20
2016,02,21,17,22,8.20
2016,02,21,17,23,8.20
2016,02,21,17,24,8.20
2016,02,21,17,25,8.20
2016,02,21,17,26,8.20
2016,02,21,17,27,8.20
2016,02,21,17,28,8.20
2016,02,21,17,29,8.20
2016,02,21,17,30,8.20
2016,02,21,17,31,8.20
2016,02,21,17,32,8.20
2016,02,21,17,33,8.20
2016,02,21,17,34,8.20
2016,02,21,17,35,8.10
2016,02,21,17,36,8.10
2016,02,21,17,37,8.10
2016,02,21,17,38,8.10
2016,02,21,17,39,8.10
2016,02,21,17,40,8.10
2016,02,21,17,41,8.10
2016,02,21,17,42,8.10
2016,02,21,17,43,8.10
2016,02,21,17,44,8.20
2016,02,21,17,45,8.20
2016,02,21,17,46,8.20
2016,02,21,17,47,8.20
2016,02,21,17,48,8.20
2016,02,21,17,49,8.20
2016,02,21,17,50,8.20
2016,02,21,17,51,8.20
2016,02,21,17,52,8.20
2016,02,21,17,53,8.30
2016,02,21,17,54,8.30
2016,02,21,17,55,8.30
2016,02,21,17,56,8.30
2016,02,21,17,57,8.30
2016,02,21,17,58,8.30
2016,02,21,17,59,8.30
2016,02,21,18,00,8.30
2016,02,21,18,01,8.30
2016,02,21,18,02,8.30
2016,02,21,18,03,8.30
2016,02,21,18,04,8.30
2016,02,21,18,05,8.30
2016,02,21,18,06,8.40
2016,02,21,18,07,8.40
2016,02,21,18,08,8.40
2016,02,21,18,09,8.40
2016,02,21,18,10,8.40
2016,02,21,18,11,8.40
2016,02,21,18,12,8.40
2016,02,21,18,13,8.30
2016,02,21,18,14,8.30
2016,02,21,18,15,8.30
2016,02,21,18,16,8.20
2016,02,21,18,17,8.20
2016,02,21,18,19,8.20
2016,02,21,18,21,8.20
2016,02,21,18,22,8.20
2016,02,21,18,23,8.20
2016,02,21,18,24,8.20
2016,02,21,18,26,8.20
2016,02,21,18,27,8.10
2016,02,21,18,28,8.10
2016,02,21,18,29,8.10
2016,02,21,18,31,8.00
2016,02,21,18,32,8.00
2016,02,21,18,33,8.00
2016,02,21,18,34,7.90
2016,02,21,18,36,7.90
2016,02,21,18,37,7.80
2016,02,21,18,38,7.80
2016,02,21,18,39,7.80
2016,02,21,18,41,7.80
2016,02,21,18,42,7.80
2016,02,21,18,43,7.80
2016,02,21,18,44,7.70
2016,02,21,18,46,7.60
2016,02,21,18,47,7.60
2016,02,21,18,48,7.60
2016,02,21,18,49,7.50
2016,02,21,18,51,7.50
2016,02,21,18,52,7.40
2016,02,21,18,53,7.40
2016,02,21,18,54,7.40
2016,02,21,18,56,7.30
2016,02,21,18,57,7.30
2016,02,21,18,58,7.30
2016,02,21,18,59,7.30
2016,02,21,19,01,7.30
2016,02,21,19,02,7.30
2016,02,21,19,03,7.30
2016,02,21,19,04,7.30
2016,02,21,19,06,7.30
2016,02,21,19,07,7.30
2016,02,21,19,08,7.30
2016,02,21,19,09,7.30
2016,02,21,19,11,7.30
2016,02,21,19,12,7.30
2016,02,21,19,13,7.30
2016,02,21,19,14,7.30
2016,02,21,19,16,7.30
2016,02,21,19,17,7.30
2016,02,21,19,18,7.30
2016,02,21,19,19,7.30
2016,02,21,19,21,7.30
2016,02,21,19,22,7.30
2016,02,21,19,23,7.30
2016,02,21,19,24,7.30
2016,02,21,19,26,7.30
2016,02,21,19,27,7.30
2016,02,21,19,28,7.30
2016,02,21,19,29,7.30
2016,02,21,19,30,7.30
2016,02,21,19,31,7.30
2016,02,21,19,32,7.30
2016,02,21,19,33,7.30
2016,02,21,19,34,7.30
2016,02,21,19,35,7.30
2016,02,21,19,36,7.30
2016,02,21,19,37,7.30
2016,02,21,19,38,7.30
2016,02,21,19,39,7.30
2016,02,21,19,40,7.30
2016,02,21,19,41,7.30
2016,02,21,19,42,7.30
2016,02,21,19,43,7.30
2016,02,21,19,44,7.30
2016,02,21,19,45,7.30
2016,02,21,19,46,7.30
2016,02,21,19,47,7.30
2016,02,21,19,48,7.30
2016,02,21,19,49,7.30
2016,02,21,19,50,7.30
2016,02,21,19,51,7.30
2016,02,21,19,52,7.30
2016,02,21,19,53,7.20
2016,02,21,19,54,7.20
2016,02,21,19,55,7.20
2016,02,21,19,56,7.10
2016,02,21,19,57,7.10